RYR45C EICK-EBCI

Flight info

Callsign RYR45C
Flight time 1h 24m
Altitude 37000
Route VAPAL1N VAPAL DCT BANBA DCT DIQSE DCT ICOSA DCT RUHUN DCT ZESPE DCT YORQI DCT UNZIB DCT NUCHU L607 BIG Q70 VABIK/N0420F230 Q70 KOK
Aircraft B738/M-SDE2E3FGHIRWXY/LB1

Departure

Time 2026-04-29 10:43
Airport Cork International Airport (EICK)

Arrival

Time 2026-04-29 12:08
Airport Brussels South Charleroi Airport (EBCI)
Time Latitude Longitude Altitude Speed Heading
2026-04-29 10:10 51.84797 -8.49039 480 ft 0 kts 70°
2026-04-29 10:28 51.84792 -8.49059 488 ft 4 kts 70°
2026-04-29 10:28 51.84783 -8.49100 477 ft 4 kts 70°
2026-04-29 10:28 51.84775 -8.49141 479 ft 4 kts 84°
2026-04-29 10:29 51.84777 -8.49181 478 ft 4 kts 116°
2026-04-29 10:29 51.84793 -8.49210 475 ft 4 kts 163°
2026-04-29 10:29 51.84802 -8.49214 478 ft 1 kts 168°
2026-04-29 10:34 51.84801 -8.49214 478 ft 0 kts 168°
2026-04-29 10:34 51.84801 -8.49213 478 ft 0 kts 168°
2026-04-29 10:35 51.84796 -8.49212 475 ft 4 kts 167°
2026-04-29 10:35 51.84714 -8.49181 483 ft 19 kts 167°
2026-04-29 10:35 51.84598 -8.49104 483 ft 7 kts 159°
2026-04-29 10:35 51.84520 -8.49056 478 ft 16 kts 159°
2026-04-29 10:36 51.84418 -8.48998 489 ft 15 kts 162°
2026-04-29 10:36 51.84339 -8.49060 485 ft 12 kts 251°
2026-04-29 10:36 51.84323 -8.49110 481 ft 0 kts 239°
2026-04-29 10:40 51.84321 -8.49117 484 ft 4 kts 239°
2026-04-29 10:40 51.84234 -8.49169 486 ft 27 kts 162°
2026-04-29 10:40 51.84060 -8.49058 480 ft 27 kts 159°
2026-04-29 10:41 51.83882 -8.48945 477 ft 27 kts 158°
2026-04-29 10:41 51.83706 -8.48844 475 ft 26 kts 161°
2026-04-29 10:41 51.83541 -8.48750 470 ft 24 kts 160°
2026-04-29 10:41 51.83438 -8.48689 470 ft 23 kts 159°
2026-04-29 10:42 51.83303 -8.48564 469 ft 22 kts 134°
2026-04-29 10:42 51.83257 -8.48590 470 ft 6 kts 296°
2026-04-29 10:42 51.83326 -8.48634 470 ft 31 kts 341°
2026-04-29 10:42 51.83850 -8.48945 475 ft 126 kts 340°
2026-04-29 10:43 51.84936 -8.49522 522 ft 199 kts 344°
2026-04-29 10:43 51.86244 -8.50426 1259 ft 217 kts 342°
2026-04-29 10:43 51.87726 -8.51338 2111 ft 230 kts 346°
2026-04-29 10:43 51.89288 -8.52016 2995 ft 242 kts
2026-04-29 10:44 51.90882 -8.51258 3569 ft 245 kts 41°
2026-04-29 10:44 51.91923 -8.49127 4550 ft 243 kts 67°
2026-04-29 10:44 51.92285 -8.46493 5614 ft 244 kts 88°
2026-04-29 10:44 51.92198 -8.43722 6617 ft 249 kts 94°
2026-04-29 10:45 51.92000 -8.40905 7503 ft 254 kts 95°
2026-04-29 10:45 51.91782 -8.38042 8415 ft 258 kts 95°
2026-04-29 10:45 51.91563 -8.35128 9342 ft 262 kts 95°
2026-04-29 10:45 51.91347 -8.32175 10237 ft 267 kts 94°
2026-04-29 10:46 51.91132 -8.29119 10791 ft 284 kts 94°
2026-04-29 10:46 51.90903 -8.25786 10989 ft 311 kts 94°
2026-04-29 10:46 51.90656 -8.22153 11183 ft 337 kts 94°
2026-04-29 10:46 51.90393 -8.18283 11577 ft 352 kts 94°
2026-04-29 10:47 51.90121 -8.14309 12281 ft 357 kts 94°
2026-04-29 10:47 51.89845 -8.10296 13079 ft 360 kts 94°
2026-04-29 10:47 51.89568 -8.06245 13856 ft 364 kts 94°
2026-04-29 10:47 51.89287 -8.02157 14558 ft 367 kts 94°
2026-04-29 10:48 51.89002 -7.98028 15260 ft 370 kts 93°
2026-04-29 10:48 51.88716 -7.93879 15974 ft 373 kts 93°
2026-04-29 10:48 51.88426 -7.89697 16656 ft 376 kts 93°
2026-04-29 10:48 51.88131 -7.85478 17322 ft 379 kts 93°
2026-04-29 10:49 51.87890 -7.81221 17983 ft 380 kts 88°
2026-04-29 10:49 51.88018 -7.76952 18611 ft 381 kts 82°
2026-04-29 10:49 51.88263 -7.72674 19171 ft 383 kts 81°
2026-04-29 10:49 51.88531 -7.68370 19720 ft 385 kts 81°
2026-04-29 10:50 51.88796 -7.64042 20275 ft 388 kts 81°
2026-04-29 10:50 51.89051 -7.59684 20828 ft 390 kts 82°
2026-04-29 10:50 51.89294 -7.55294 21352 ft 393 kts 82°
2026-04-29 10:50 51.89530 -7.50875 21847 ft 396 kts 82°
2026-04-29 10:51 51.89760 -7.46416 22330 ft 399 kts 82°
2026-04-29 10:51 51.89988 -7.41931 22821 ft 401 kts 82°
2026-04-29 10:51 51.90213 -7.37414 23299 ft 404 kts 82°
2026-04-29 10:51 51.90438 -7.32866 23746 ft 407 kts 82°
2026-04-29 10:52 51.90663 -7.28282 24141 ft 409 kts 82°
2026-04-29 10:52 51.90887 -7.23680 24537 ft 411 kts 82°
2026-04-29 10:52 51.91110 -7.19059 24910 ft 413 kts 82°
2026-04-29 10:52 51.91333 -7.14399 25266 ft 416 kts 82°
2026-04-29 10:53 51.91555 -7.09718 25629 ft 418 kts 82°
2026-04-29 10:53 51.91776 -7.05026 25994 ft 419 kts 82°
2026-04-29 10:53 51.91997 -7.00306 26333 ft 421 kts 82°
2026-04-29 10:53 51.92216 -6.95560 26655 ft 424 kts 82°
2026-04-29 10:54 51.92436 -6.90789 26991 ft 425 kts 82°
2026-04-29 10:54 51.92653 -6.86005 27327 ft 427 kts 82°
2026-04-29 10:54 51.92869 -6.81203 27647 ft 429 kts 82°
2026-04-29 10:54 51.93085 -6.76372 27945 ft 431 kts 82°
2026-04-29 10:55 51.93297 -6.71583 28285 ft 431 kts 82°
2026-04-29 10:55 51.93508 -6.66742 28758 ft 429 kts 82°
2026-04-29 10:55 51.93716 -6.61937 29254 ft 426 kts 81°
2026-04-29 10:55 51.93921 -6.57152 29705 ft 425 kts 81°
2026-04-29 10:56 51.94124 -6.52387 30143 ft 424 kts 81°
2026-04-29 10:56 51.94325 -6.47636 30577 ft 421 kts 81°
2026-04-29 10:56 51.94522 -6.42913 31005 ft 419 kts 81°
2026-04-29 10:56 51.94718 -6.38219 31419 ft 416 kts 81°
2026-04-29 10:57 51.94910 -6.33547 31850 ft 414 kts 81°
2026-04-29 10:57 51.95098 -6.28913 32290 ft 411 kts 82°
2026-04-29 10:57 51.95094 -6.24282 32696 ft 413 kts 88°
2026-04-29 10:57 51.94716 -6.19651 33070 ft 418 kts 96°
2026-04-29 10:58 51.94012 -6.15082 33507 ft 416 kts 98°
2026-04-29 10:58 51.93292 -6.10558 33930 ft 413 kts 98°
2026-04-29 10:58 51.92578 -6.06059 34325 ft 411 kts 97°
2026-04-29 10:58 51.91874 -6.01584 34588 ft 411 kts 97°
2026-04-29 10:59 51.91173 -5.97089 34758 ft 413 kts 97°
2026-04-29 10:59 51.90471 -5.92581 34964 ft 413 kts 97°
2026-04-29 10:59 51.89768 -5.88063 35188 ft 414 kts 97°
2026-04-29 10:59 51.89064 -5.83545 35380 ft 415 kts 97°
2026-04-29 11:00 51.88355 -5.79006 35566 ft 416 kts 97°
2026-04-29 11:00 51.87642 -5.74458 35779 ft 417 kts 97°
2026-04-29 11:00 51.86925 -5.69904 35969 ft 418 kts 97°
2026-04-29 11:00 51.86206 -5.65342 36136 ft 419 kts 98°
2026-04-29 11:01 51.85483 -5.60768 36317 ft 420 kts 98°
2026-04-29 11:01 51.84754 -5.56173 36464 ft 422 kts 98°
2026-04-29 11:01 51.84022 -5.51571 36623 ft 423 kts 98°
2026-04-29 11:01 51.83286 -5.46958 36799 ft 424 kts 98°
2026-04-29 11:02 51.82548 -5.42342 36981 ft 425 kts 98°
2026-04-29 11:02 51.81804 -5.37697 37150 ft 425 kts 98°
2026-04-29 11:02 51.81073 -5.33181 37196 ft 407 kts 98°
2026-04-29 11:03 51.79728 -5.24453 37243 ft 399 kts 95°
2026-04-29 11:03 51.78682 -5.15607 37264 ft 408 kts 94°
2026-04-29 11:04 51.77653 -5.06506 37269 ft 417 kts 94°
2026-04-29 11:04 51.76580 -4.97215 37253 ft 425 kts 95°
2026-04-29 11:05 51.75465 -4.87774 37248 ft 430 kts 95°
2026-04-29 11:05 51.74327 -4.78270 37245 ft 432 kts 95°
2026-04-29 11:06 51.73179 -4.68738 37242 ft 433 kts 95°
2026-04-29 11:06 51.72025 -4.59221 37229 ft 433 kts 95°
2026-04-29 11:07 51.70864 -4.49704 37233 ft 432 kts 95°
2026-04-29 11:07 51.69697 -4.40205 37232 ft 432 kts 96°
2026-04-29 11:08 51.68526 -4.30733 37233 ft 431 kts 96°
2026-04-29 11:08 51.67350 -4.21290 37231 ft 431 kts 96°
2026-04-29 11:09 51.66161 -4.11808 37235 ft 431 kts 96°
2026-04-29 11:09 51.64965 -4.02339 37238 ft 431 kts 96°
2026-04-29 11:10 51.63765 -3.92883 37240 ft 431 kts 97°
2026-04-29 11:10 51.62550 -3.83421 37230 ft 432 kts 97°
2026-04-29 11:11 51.61309 -3.73968 37235 ft 432 kts 97°
2026-04-29 11:11 51.60063 -3.64513 37227 ft 432 kts 97°
2026-04-29 11:12 51.59060 -3.55010 37227 ft 428 kts 91°
2026-04-29 11:12 51.58556 -3.45471 37219 ft 428 kts 91°
2026-04-29 11:13 51.58066 -3.35913 37220 ft 429 kts 91°
2026-04-29 11:13 51.57533 -3.26342 37242 ft 430 kts 92°
2026-04-29 11:14 51.56975 -3.16746 37241 ft 432 kts 92°
2026-04-29 11:14 51.56692 -3.11935 37367 ft 432 kts 92°
2026-04-29 11:14 51.56407 -3.07126 37380 ft 433 kts 92°
2026-04-29 11:15 51.55836 -2.97553 37387 ft 434 kts 92°
2026-04-29 11:15 51.55250 -2.87890 37378 ft 435 kts 93°
2026-04-29 11:15 51.54940 -2.83052 37240 ft 435 kts 93°
2026-04-29 11:16 51.54618 -2.78221 37241 ft 436 kts 93°
2026-04-29 11:16 51.53963 -2.68530 37240 ft 436 kts 94°
2026-04-29 11:17 51.53306 -2.58835 37248 ft 437 kts 94°
2026-04-29 11:17 51.52643 -2.49102 37239 ft 438 kts 94°
2026-04-29 11:18 51.51973 -2.39374 37237 ft 438 kts 94°
2026-04-29 11:18 51.51317 -2.29640 37249 ft 438 kts 94°
2026-04-29 11:19 51.50658 -2.19930 37255 ft 438 kts 94°
2026-04-29 11:19 51.49989 -2.10199 37251 ft 438 kts 94°
2026-04-29 11:20 51.49316 -2.00544 37256 ft 438 kts 95°
2026-04-29 11:20 51.48618 -1.90853 37254 ft 437 kts 95°
2026-04-29 11:21 51.47902 -1.81159 37263 ft 437 kts 95°
2026-04-29 11:21 51.47183 -1.71475 37260 ft 437 kts 95°
2026-04-29 11:22 51.46170 -1.61857 37268 ft 438 kts 101°
2026-04-29 11:22 51.44810 -1.52325 37254 ft 438 kts 101°
2026-04-29 11:23 51.43491 -1.42796 37257 ft 438 kts 101°
2026-04-29 11:23 51.42169 -1.33261 37246 ft 438 kts 101°
2026-04-29 11:24 51.40840 -1.23727 37251 ft 438 kts 101°
2026-04-29 11:24 51.39548 -1.14183 37235 ft 438 kts 97°
2026-04-29 11:25 51.39001 -1.04489 37239 ft 437 kts 93°
2026-04-29 11:25 51.38625 -0.96363 37242 ft 437 kts 93°
2026-04-29 11:26 51.37901 -0.81796 37266 ft 438 kts 94°
2026-04-29 11:26 51.37391 -0.72135 37265 ft 438 kts 94°
2026-04-29 11:27 51.36867 -0.62439 37269 ft 438 kts 94°
2026-04-29 11:27 51.36335 -0.52735 37288 ft 438 kts 94°
2026-04-29 11:28 51.35797 -0.43041 37287 ft 438 kts 95°
2026-04-29 11:28 51.35250 -0.33342 37290 ft 437 kts 95°
2026-04-29 11:29 51.34696 -0.23658 37287 ft 437 kts 95°
2026-04-29 11:29 51.34135 -0.13996 37292 ft 436 kts 95°
2026-04-29 11:30 51.33568 -0.04340 37291 ft 435 kts 95°
2026-04-29 11:30 51.33282 0.00474 37097 ft 435 kts 96°
2026-04-29 11:30 51.33003 0.05245 37181 ft 426 kts 96°
2026-04-29 11:31 51.32558 0.14587 37271 ft 420 kts 95°
2026-04-29 11:31 51.32140 0.23921 37284 ft 422 kts 96°
2026-04-29 11:32 51.31701 0.33277 37420 ft 423 kts 96°
2026-04-29 11:32 51.31243 0.42676 37428 ft 424 kts 96°
2026-04-29 11:33 51.30506 0.52035 37422 ft 424 kts 99°
2026-04-29 11:33 51.29620 0.61353 37407 ft 424 kts 99°
2026-04-29 11:34 51.28744 0.70678 37385 ft 424 kts 99°
2026-04-29 11:34 51.27891 0.79954 37353 ft 425 kts 99°
2026-04-29 11:35 51.27037 0.89278 37264 ft 420 kts 99°
2026-04-29 11:35 51.26616 0.93856 36755 ft 414 kts 99°
2026-04-29 11:35 51.26196 0.98405 36013 ft 416 kts 99°
2026-04-29 11:36 51.25769 1.03007 35226 ft 420 kts 99°
2026-04-29 11:36 51.25337 1.07634 34492 ft 423 kts 99°
2026-04-29 11:36 51.24901 1.12284 33688 ft 424 kts 100°
2026-04-29 11:36 51.24463 1.16940 32810 ft 426 kts 100°
2026-04-29 11:37 51.24020 1.21628 31917 ft 429 kts 100°
2026-04-29 11:37 51.23571 1.26354 31013 ft 432 kts 100°
2026-04-29 11:37 51.23118 1.31106 30068 ft 434 kts 100°
2026-04-29 11:37 51.22660 1.35878 28970 ft 436 kts 100°
2026-04-29 11:38 51.22202 1.40640 27847 ft 439 kts 100°
2026-04-29 11:38 51.21731 1.45509 26662 ft 442 kts 100°
2026-04-29 11:38 51.21258 1.50380 25517 ft 446 kts 100°
2026-04-29 11:38 51.20784 1.55248 24696 ft 441 kts 100°
2026-04-29 11:39 51.20321 1.59981 24028 ft 434 kts 100°
2026-04-29 11:39 51.19855 1.64730 23651 ft 436 kts 100°
2026-04-29 11:39 51.19383 1.69505 23499 ft 434 kts 100°
2026-04-29 11:39 51.18918 1.74195 23333 ft 420 kts 100°
2026-04-29 11:40 51.18469 1.78706 23268 ft 406 kts 100°
2026-04-29 11:40 51.18027 1.83128 23258 ft 403 kts 100°
2026-04-29 11:40 51.17584 1.87533 23257 ft 404 kts 100°
2026-04-29 11:40 51.17136 1.91970 23253 ft 405 kts 100°
2026-04-29 11:41 51.16686 1.96407 23246 ft 405 kts 100°
2026-04-29 11:41 51.16236 2.00834 23253 ft 405 kts 100°
2026-04-29 11:41 51.15784 2.05264 23246 ft 406 kts 100°
2026-04-29 11:41 51.15329 2.09708 23255 ft 406 kts 100°
2026-04-29 11:42 51.14873 2.14145 23254 ft 406 kts 100°
2026-04-29 11:42 51.14414 2.18594 23249 ft 407 kts 100°
2026-04-29 11:42 51.13954 2.23036 23245 ft 407 kts 100°
2026-04-29 11:42 51.13491 2.27481 23244 ft 407 kts 100°
2026-04-29 11:43 51.13027 2.31934 23250 ft 407 kts 99°
2026-04-29 11:43 51.12561 2.36383 23246 ft 407 kts 99°
2026-04-29 11:43 51.12093 2.40832 23250 ft 407 kts 99°
2026-04-29 11:43 51.11623 2.45285 23249 ft 407 kts 99°
2026-04-29 11:44 51.11152 2.49723 23258 ft 407 kts 99°
2026-04-29 11:44 51.10680 2.54167 23263 ft 407 kts 99°
2026-04-29 11:44 51.10206 2.58615 23251 ft 407 kts 99°
2026-04-29 11:44 51.09737 2.62996 23248 ft 405 kts 99°
2026-04-29 11:45 51.09261 2.67353 22812 ft 396 kts 100°
2026-04-29 11:45 51.08750 2.71659 22076 ft 395 kts 102°
2026-04-29 11:45 51.07904 2.75809 21271 ft 396 kts 112°
2026-04-29 11:45 51.06635 2.79695 20595 ft 396 kts 121°
2026-04-29 11:46 51.05041 2.83168 20491 ft 380 kts 125°
2026-04-29 11:46 51.03482 2.86456 20388 ft 365 kts 124°
2026-04-29 11:46 51.01986 2.89625 20300 ft 351 kts 124°
2026-04-29 11:46 51.00551 2.92677 20220 ft 339 kts 124°
2026-04-29 11:47 50.99168 2.95626 20145 ft 327 kts 124°
2026-04-29 11:47 50.97835 2.98471 20074 ft 315 kts 124°
2026-04-29 11:47 50.96544 3.01226 20009 ft 305 kts 123°
2026-04-29 11:47 50.95301 3.03879 19871 ft 296 kts 123°
2026-04-29 11:48 50.94063 3.06524 19213 ft 300 kts 123°
2026-04-29 11:48 50.92816 3.09187 18644 ft 301 kts 123°
2026-04-29 11:48 50.91564 3.11859 17996 ft 302 kts 123°
2026-04-29 11:48 50.90308 3.14535 17349 ft 303 kts 123°
2026-04-29 11:49 50.89048 3.17214 16702 ft 303 kts 123°
2026-04-29 11:49 50.87788 3.19891 16077 ft 303 kts 123°
2026-04-29 11:49 50.86527 3.22563 15466 ft 303 kts 123°
2026-04-29 11:49 50.85268 3.25232 14859 ft 302 kts 123°
2026-04-29 11:50 50.84011 3.27893 14265 ft 301 kts 123°
2026-04-29 11:50 50.82757 3.30544 13632 ft 300 kts 123°
2026-04-29 11:50 50.81508 3.33182 12984 ft 299 kts 123°
2026-04-29 11:50 50.80264 3.35807 12335 ft 298 kts 124°
2026-04-29 11:51 50.79026 3.38417 11705 ft 296 kts 124°
2026-04-29 11:51 50.77793 3.41014 11092 ft 294 kts 124°
2026-04-29 11:51 50.76566 3.43593 10498 ft 293 kts 124°
2026-04-29 11:51 50.75348 3.46156 9880 ft 291 kts 124°
2026-04-29 11:52 50.74150 3.48672 9221 ft 289 kts 124°
2026-04-29 11:52 50.72945 3.51199 8644 ft 286 kts 124°
2026-04-29 11:52 50.71771 3.53659 8279 ft 276 kts 124°
2026-04-29 11:52 50.70629 3.56049 7898 ft 269 kts 124°
2026-04-29 11:53 50.69514 3.58377 7523 ft 263 kts 124°
2026-04-29 11:53 50.68427 3.60656 7141 ft 257 kts 124°
2026-04-29 11:53 50.67362 3.62879 6789 ft 252 kts 124°
2026-04-29 11:53 50.66314 3.65061 6419 ft 248 kts 124°
2026-04-29 11:54 50.65281 3.67217 6016 ft 245 kts 124°
2026-04-29 11:54 50.64354 3.69151 5686 ft 241 kts 124°
2026-04-29 11:54 50.63334 3.71218 5297 ft 239 kts 131°
2026-04-29 11:54 50.61861 3.72428 4903 ft 247 kts 166°
2026-04-29 11:55 50.60149 3.72613 4539 ft 245 kts 172°
2026-04-29 11:55 50.58455 3.72732 4181 ft 244 kts 172°
2026-04-29 11:55 50.56758 3.72847 3807 ft 244 kts 172°
2026-04-29 11:55 50.55056 3.72963 3413 ft 245 kts 172°
2026-04-29 11:56 50.53360 3.73071 3033 ft 242 kts 173°
2026-04-29 11:56 50.51682 3.73127 2630 ft 240 kts 172°
2026-04-29 11:56 50.50052 3.73202 2480 ft 227 kts 172°
2026-04-29 11:56 50.48551 3.73251 2455 ft 211 kts 172°
2026-04-29 11:57 50.47146 3.73504 2469 ft 197 kts 148°
2026-04-29 11:57 50.46230 3.75086 2489 ft 213 kts 107°
2026-04-29 11:57 50.45899 3.77416 2483 ft 224 kts 100°
2026-04-29 11:57 50.45566 3.79827 2469 ft 226 kts 100°
2026-04-29 11:58 50.45219 3.82237 2463 ft 228 kts 101°
2026-04-29 11:58 50.44860 3.84642 2450 ft 225 kts 102°
2026-04-29 11:58 50.44498 3.87047 2459 ft 227 kts 102°
2026-04-29 11:58 50.44133 3.89459 2469 ft 226 kts 102°
2026-04-29 11:59 50.43759 3.91848 2464 ft 225 kts 102°
2026-04-29 11:59 50.43385 3.94215 2447 ft 218 kts 102°
2026-04-29 11:59 50.43033 3.96436 2446 ft 202 kts 102°
2026-04-29 11:59 50.42707 3.98472 2448 ft 183 kts 102°
2026-04-29 12:00 50.42410 4.00335 2473 ft 170 kts 101°
2026-04-29 12:00 50.42142 4.02104 2464 ft 164 kts 101°
2026-04-29 12:00 50.41866 4.03811 2468 ft 159 kts 102°
2026-04-29 12:00 50.41583 4.05436 2501 ft 151 kts 101°
2026-04-29 12:01 50.41339 4.06986 2501 ft 143 kts 101°
2026-04-29 12:01 50.41097 4.08522 2467 ft 145 kts 100°
2026-04-29 12:01 50.40859 4.10002 2456 ft 139 kts 102°
2026-04-29 12:01 50.40626 4.11418 2422 ft 127 kts 101°
2026-04-29 12:02 50.40416 4.12739 2485 ft 130 kts 103°
2026-04-29 12:02 50.40163 4.14168 2457 ft 138 kts 101°
2026-04-29 12:02 50.39938 4.15625 2495 ft 140 kts 101°
2026-04-29 12:02 50.39699 4.17132 2479 ft 143 kts 101°
2026-04-29 12:03 50.39458 4.18649 2512 ft 145 kts 101°
2026-04-29 12:03 50.39229 4.20219 2472 ft 148 kts 92°
2026-04-29 12:03 50.39480 4.21706 2469 ft 141 kts 73°
2026-04-29 12:03 50.39756 4.23141 2503 ft 138 kts 75°
2026-04-29 12:04 50.40078 4.24591 2524 ft 145 kts 71°
2026-04-29 12:04 50.40462 4.26081 2474 ft 145 kts 70°
2026-04-29 12:04 50.40855 4.27512 2462 ft 142 kts 68°
2026-04-29 12:04 50.41264 4.28910 2480 ft 142 kts 72°
2026-04-29 12:05 50.41640 4.30376 2482 ft 152 kts 66°
2026-04-29 12:05 50.42095 4.31879 2321 ft 153 kts 66°
2026-04-29 12:05 50.42537 4.33385 2099 ft 149 kts 67°
2026-04-29 12:05 50.42950 4.34807 1930 ft 140 kts 66°
2026-04-29 12:06 50.43351 4.36186 1781 ft 140 kts 65°
2026-04-29 12:06 50.43759 4.37598 1545 ft 142 kts 66°
2026-04-29 12:06 50.44163 4.38988 1367 ft 140 kts 66°
2026-04-29 12:06 50.44549 4.40325 1180 ft 128 kts 65°
2026-04-29 12:07 50.44898 4.41531 1061 ft 120 kts 65°
2026-04-29 12:07 50.45231 4.42729 872 ft 120 kts 66°
2026-04-29 12:07 50.45578 4.43872 672 ft 112 kts 64°
2026-04-29 12:07 50.45900 4.44993 600 ft 113 kts 66°
2026-04-29 12:08 50.46139 4.45805 591 ft 39 kts 65°
2026-04-29 12:08 50.46238 4.46110 586 ft 19 kts 43°
2026-04-29 12:08 50.46341 4.46111 586 ft 8 kts 337°
2026-04-29 12:08 50.46396 4.46112 586 ft 8 kts 32°
2026-04-29 12:09 50.46442 4.46234 584 ft 18 kts 66°
2026-04-29 12:09 50.46471 4.46339 583 ft 10 kts 66°
2026-04-29 12:09 50.46490 4.46408 582 ft 10 kts 66°
2026-04-29 12:09 50.46533 4.46534 581 ft 10 kts 44°
2026-04-29 12:10 50.46575 4.46558 580 ft 10 kts
2026-04-29 12:10 50.46634 4.46637 579 ft 9 kts 73°
2026-04-29 12:10 50.46658 4.46731 583 ft 9 kts 65°
2026-04-29 12:10 50.46675 4.46791 580 ft 9 kts 65°
2026-04-29 12:11 50.46701 4.46880 579 ft 9 kts 65°
2026-04-29 12:11 50.46726 4.46965 580 ft 8 kts 65°
2026-04-29 12:11 50.46750 4.47048 580 ft 8 kts 64°
2026-04-29 12:11 50.46786 4.47115 577 ft 8 kts 39°
2026-04-29 12:12 50.46838 4.47124 577 ft 8 kts 340°
2026-04-29 12:12 50.46849 4.47116 580 ft 0 kts 332°
2026-04-29 12:12 50.46857 4.47109 580 ft 2 kts 334°
2026-04-29 12:12 50.46868 4.47101 578 ft 2 kts 335°
2026-04-29 12:13 50.46872 4.47098 577 ft 1 kts 335°
2026-04-29 12:13 50.46871 4.47099 581 ft 0 kts 335°
2026-04-29 12:13 50.46872 4.47098 577 ft 0 kts 335°